Flag for U.S.A. Weather past 2 weeks in Baton Rouge, Louisiana, U.S.A.

Now
70 °F

Passing clouds.


Feels Like: 70 °F
Forecast: 67 / 88 °F
Wind: 3 mph from Northeast

Location: Baton Rouge Metropolitan - Ryan Field

Current Time: Jul 31, 2014 at 7:29:40 AM

Latest Report: Jul 31, 2014 at 6:53 AM


Visibility: 10 mi

Pressure: 30.02 "Hg

Humidity: 81%

Dew point: 64 °F

Location of Baton RougeLocation

Historic Weather in Baton Rouge — Graph

°F

Baton Rouge temperature yesterday

Maximum temperature yesterday: 88 °F (at 4:53 PM)
Minimum temperature yesterday: 67 °F (at 5:53 AM)
Average temperature yesterday: 77 °F

Past Weeks' High & Low Weather Summary

 TemperatureHumidityPressure
High94 °F (Jul 26, 3:53 PM)97% (Jul 18, 6:53 AM)30.11 "Hg (Jul 18, 6:53 AM)
Low62 °F (Jul 17, 6:53 AM)41% (Jul 29, 3:53 PM)29.90 "Hg (Jul 18, 6:53 PM)
Average80 °F76%30.01 "Hg
* Reported Jul 16 5:53 AM — Jul 31 5:53 AM, Baton Rouge, Weather by CustomWeather, © 2014

Note: Actual official high and low records may vary slightly from our data, if they occured in-between our weather recording intervals... More about our weather records

Advertising

Baton Rouge weather history for previous 24 hours

 ConditionsComfort  
Time TempWeatherWind HumidityBarometerVisibility
5:53 AM
Jul 31
69 °FClear.6 mph84%30.00 "Hg10 mi
4:53 AM70 °FClear.No wind81%29.99 "Hg10 mi
3:53 AM70 °FClear.6 mph81%29.98 "Hg10 mi
2:53 AM70 °FClear.5 mph84%30.00 "Hg10 mi
1:53 AM70 °FClear.No wind81%30.01 "Hg10 mi
12:53 AM70 °FClear.No wind81%30.02 "Hg10 mi
11:53 PM
Jul 30
72 °FClear.5 mph76%30.03 "Hg10 mi
10:53 PM71 °FClear.5 mph84%30.03 "Hg10 mi
9:53 PM74 °FClear.3 mph74%30.02 "Hg10 mi
8:53 PM76 °FSunny.5 mph69%30.01 "Hg10 mi
7:53 PM80 °FSunny.3 mph58%30.00 "Hg10 mi
6:53 PM85 °FSunny.6 mph46%30.00 "Hg10 mi
5:53 PM87 °FSunny.7 mph43%30.00 "Hg10 mi
4:53 PM88 °FSunny.5 mph42%30.00 "Hg10 mi
3:53 PM87 °FSunny.5 mph45%30.01 "Hg10 mi
2:53 PM86 °FSunny.N/A43%30.02 "Hg10 mi
1:53 PM86 °FSunny.5 mph42%30.04 "Hg10 mi
12:53 PM85 °FSunny.3 mph46%30.06 "Hg10 mi
11:53 AM83 °FSunny.5 mph46%30.08 "Hg10 mi
10:53 AM81 °FSunny.7 mph51%30.09 "Hg10 mi
9:53 AM77 °FSunny.8 mph60%30.09 "Hg10 mi
8:53 AM75 °FSunny.8 mph64%30.09 "Hg10 mi
7:53 AM72 °FSunny.5 mph73%30.09 "Hg10 mi
Weather by CustomWeather, © 2014

See weather overviewHow to use our weather pages